Location: *
(50.8512°N, 5.6907°E)
Time: 13:29:47
(UTC+00:00)

STARLINK-1226 - Pass Details

Date: 09 April 2020
Orbit: 378 x 382 km, 53.0° (Epoch: 26 May)

Event Time Altitude Azimuth Distance (km) Brightness Sun altitude
Rises 19:45:30 0° 288° (WNW) 2,266 8.6 -12.8°
Reaches altitude 10° 19:47:40 10° 279° (W) 1,409 6.9 -13.1°
Maximum altitude 19:50:32 32° 213° (SSW) 680 4.1 -13.5°
Enters shadow 19:52:03 20° 164° (SSE) 941 4.4 -13.7°
